| time (UTC) | temp C | wind direction | speed KPH | gust KPH | rain 1hr cm | rain 24hr cm | rain mn cm | humidity % | barometer mb |
| 20260504194609 | 20 | 269 | 8.0 | 25.7 | 0.00 | 0.00 | 0.00 | 45 | 1009.3 |
| 20260504193058 | 20 | 249 | 9.7 | 25.7 | 0.00 | 0.00 | 0.00 | 44 | 1009.4 |
| 20260504191626 | 20 | 38 | 6.4 | 24.1 | 0.00 | 0.00 | 0.00 | 45 | 1009.5 |
| 20260504190106 | 20 | 100 | 6.4 | 29.0 | 0.00 | 0.00 | 0.00 | 46 | 1009.5 |
| 20260504184556 | 20 | 312 | 6.4 | 19.3 | 0.00 | 0.00 | 0.00 | 42 | 1009.7 |
| 20260504183056 | 20 | 78 | 6.4 | 22.5 | 0.00 | 0.00 | 0.00 | 40 | 1009.7 |
| 20260504181602 | 20 | 311 | 9.7 | 22.5 | 0.00 | 0.00 | 0.00 | 40 | 1010.0 |
| 20260504180057 | 20 | 225 | 4.8 | 22.5 | 0.00 | 0.00 | 0.00 | 43 | 1010.0 |
| 20260504174559 | 19 | 308 | 8.0 | 25.7 | 0.00 | 0.00 | 0.00 | 41 | 1010.2 |
| 20260504173057 | 20 | 360 | 4.8 | 27.4 | 0.00 | 0.00 | 0.00 | 40 | 1010.4 |
| 20260504171601 | 19 | 355 | 8.0 | 22.5 | 0.00 | 0.00 | 0.00 | 39 | 1010.4 |
| 20260504160104 | 18 | 303 | 6.4 | 30.6 | 0.00 | 0.00 | 0.00 | 41 | 1011.0 |
| 20260504120130 | 9 | 306 | 1.6 | 6.4 | 0.00 | 0.00 | 0.00 | 70 | 1013.1 |
| 20260504081610 | 1 | 284 | 0.0 | 3.2 | 0.00 | 0.00 | 0.00 | 92 | 1012.1 |
| 20260504044557 | 1 | 0 | 0.0 | 0.0 | 0.00 | 0.00 | 0.00 | 86 | 1011.8 |
| 20260504043113 | 1 | 0 | 0.0 | 0.0 | 0.00 | 0.00 | 0.00 | 86 | 1011.8 |
| 20260504041558 | 1 | 0 | 0.0 | 1.6 | 0.00 | 0.00 | 0.00 | 85 | 1011.7 |
| 20260504040058 | 1 | 0 | 0.0 | 0.0 | 0.00 | 0.00 | 0.00 | 84 | 1011.7 |
| 20260504034556 | 2 | 0 | 0.0 | 0.0 | 0.00 | 0.00 | 0.00 | 83 | 1011.6 |
| 20260504033104 | 2 | 0 | 0.0 | 0.0 | 0.00 | 0.00 | 0.00 | 82 | 1011.6 |
| 20260504031602 | 2 | 0 | 0.0 | 0.0 | 0.00 | 0.00 | 0.00 | 81 | 1011.6 |
| 20260504030115 | 2 | 0 | 0.0 | 0.0 | 0.00 | 0.00 | 0.00 | 79 | 1011.6 |
| 20260504024555 | 3 | 0 | 0.0 | 0.0 | 0.00 | 0.00 | 0.00 | 77 | 1011.5 |
| 20260504023058 | 3 | 0 | 0.0 | 0.0 | 0.00 | 0.00 | 0.00 | 76 | 1011.6 |
| 20260504021559 | 3 | 0 | 0.0 | 0.0 | 0.00 | 0.00 | 0.00 | 74 | 1011.6 |
| 20260504020107 | 4 | 0 | 0.0 | 0.0 | 0.00 | 0.00 | 0.00 | 73 | 1011.5 |
| 20260504014604 | 5 | 0 | 0.0 | 0.0 | 0.00 | 0.00 | 0.00 | 71 | 1011.5 |
| 20260504013058 | 5 | 0 | 0.0 | 0.0 | 0.00 | 0.00 | 0.00 | 70 | 1011.3 |
| 20260504011556 | 6 | 0 | 0.0 | 1.6 | 0.00 | 0.00 | 0.00 | 67 | 1011.1 |
| 20260504010101 | 6 | 0 | 0.0 | 0.0 | 0.00 | 0.00 | 0.00 | 66 | 1010.9 |
| 20260504004556 | 7 | 0 | 0.0 | 0.0 | 0.00 | 0.00 | 0.00 | 66 | 1010.5 |
| 20260504003104 | 7 | 0 | 0.0 | 1.6 | 0.00 | 0.00 | 0.00 | 61 | 1010.3 |
| 20260504001600 | 8 | 0 | 0.0 | 1.6 | 0.00 | 0.00 | 0.00 | 57 | 1010.2 |
| 20260504000103 | 9 | 0 | 0.0 | 1.6 | 0.00 | 0.00 | 0.00 | 53 | 1009.9 |
| 20260503234558 | 10 | 0 | 0.0 | 3.2 | 0.00 | 0.00 | 0.00 | 53 | 1009.9 |
| 20260503233102 | 11 | 0 | 0.0 | 4.8 | 0.00 | 0.00 | 0.00 | 43 | 1009.7 |
| 20260503231556 | 12 | 0 | 1.6 | 9.7 | 0.00 | 0.00 | 0.00 | 39 | 1009.7 |
| 20260503230112 | 13 | 154 | 1.6 | 6.4 | 0.00 | 0.00 | 0.00 | 37 | 1009.6 |
| 20260503224556 | 13 | 10 | 3.2 | 14.5 | 0.00 | 0.00 | 0.00 | 37 | 1009.6 |
| 20260503223110 | 13 | 0 | 6.4 | 16.1 | 0.00 | 0.00 | 0.00 | 36 | 1009.4 |
| 20260503221555 | 13 | 278 | 3.2 | 9.7 | 0.00 | 0.00 | 0.00 | 38 | 1009.3 |
| 20260503220055 | 13 | 0 | 3.2 | 12.9 | 0.00 | 0.00 | 0.00 | 39 | 1009.4 |
| 20260503214601 | 13 | 0 | 4.8 | 20.9 | 0.00 | 0.00 | 0.00 | 39 | 1009.4 |
| 20260503213058 | 13 | 34 | 6.4 | 20.9 | 0.00 | 0.00 | 0.00 | 38 | 1009.4 |
| 20260503211557 | 13 | 9 | 6.4 | 22.5 | 0.00 | 0.00 | 0.00 | 40 | 1009.3 |
| 20260503210058 | 12 | 214 | 6.4 | 20.9 | 0.00 | 0.00 | 0.00 | 39 | 1009.4 |
| 20260503204557 | 12 | 13 | 9.7 | 25.7 | 0.00 | 0.00 | 0.00 | 38 | 1009.2 |
| 20260503203054 | 12 | 330 | 4.8 | 20.9 | 0.00 | 0.00 | 0.00 | 40 | 1009.0 |
| 20260503201556 | 12 | 14 | 4.8 | 22.5 | 0.00 | 0.00 | 0.00 | 42 | 1009.1 |
| 20260503200058 | 11 | 273 | 6.4 | 24.1 | 0.00 | 0.00 | 0.00 | 45 | 1009.3 |